Ann Arbor, MI

9:25 PM EST on December 09, 2016 (GMT -0500)
Ann Arbor Municipal

Weather History for KARB - June, 2013

Change the Weather History Date:

Saturday, June 1, 2013

  Actual Average Record
Temperature  
Mean Temperature 70 °F -  
Max Temperature 79 °F 69 °F 86 °F (2002)
Min Temperature 62 °F 46 °F 37 °F (2003)
Cooling Degree Days 5    
Growing Degree Days 20 (Base 50)    
Moisture  
Dew Point 63 °F    
Average Humidity 82    
Maximum Humidity 100    
Minimum Humidity 60    
Precipitation  
Precipitation 0.19 in - - ()
Sea Level Pressure  
Sea Level Pressure 29.79 in    
Wind  
Wind Speed 11 mph (SSW)    
Max Wind Speed 16 mph    
Max Gust Speed 24 mph    
Visibility 10 miles    
Events Rain , Thunderstorm    
Averages and records for this station are not official NWS values.
T = Trace of Precipitation, MM = Missing Value Source: NWS Daily Summary

Daily Weather History Graph

Daily Weather History Graph

Search for Another Location

Airport or City:

Trip Planner

Search our weather history database for the weather conditions in past years. The results will help you decide how hot, cold, wet, or windy it might be!

Date:

Astronomy

Jun. 01, 2013 Rise Set
Actual Time 6:01 AM EDT 9:05 PM EDT
Civil Twilight 5:27 AM EDT 9:38 PM EDT
Nautical Twilight 4:44 AM EDT 10:22 PM EDT
Astronomical Twilight 3:53 AM EDT 11:13 PM EDT
Moon 2:03 AM EDT (6/1) 2:26 PM EDT (6/1)
Length of Visible Light 16h 11m
Length of Day
15h 03m
Last Quarter, 41% of the Moon is Illuminated
Jun 1
Last Quarter
Jun 8
New
Jun 16
First Quarter
Jun 23
Full
Jun 30
Last Quarter

Hourly Weather History & Observations

Time (EDT) Temp. Dew Point Humidity Pressure Visibility Wind Dir Wind Speed Gust Speed Precip Events Conditions
12:53 AM 70.0 °F 66.9 °F 90% 29.86 in 7.0 mi SSW 11.5 mph - 0.01 in Rain Light Rain
1:53 AM 69.1 °F 66.9 °F 93% 29.81 in 9.0 mi SSW 13.8 mph 21.9 mph 0.02 in   Mostly Cloudy
2:53 AM 66.9 °F 63.0 °F 87% 29.80 in 10.0 mi SSW 13.8 mph 20.7 mph 0.01 in Rain Light Rain
3:53 AM 64.9 °F 62.1 °F 90% 29.81 in 10.0 mi WSW 9.2 mph - 0.04 in   Scattered Clouds
4:40 AM 64.4 °F 60.8 °F 88% 29.86 in 10.0 mi SW 13.8 mph 20.7 mph 0.01 in Rain , Thunderstorm Light Rain
4:53 AM 64.0 °F 62.1 °F 93% 29.85 in 10.0 mi SW 13.8 mph 21.9 mph 0.02 in Rain , Thunderstorm Light Thunderstorms and Rain
5:17 AM 64.4 °F 62.6 °F 94% 29.85 in 6.0 mi SW 10.4 mph - 0.06 in Rain Rain
5:30 AM 64.4 °F 62.6 °F 94% 29.85 in 7.0 mi SW 8.1 mph - 0.08 in Rain Light Rain
5:53 AM 64.0 °F 62.1 °F 93% 29.81 in 10.0 mi South 6.9 mph - 0.09 in Rain Light Rain
6:17 AM 62.6 °F 62.6 °F 100% 29.80 in 10.0 mi SSE 11.5 mph - 0.00 in   Overcast
6:53 AM 64.0 °F 62.1 °F 93% 29.83 in 10.0 mi SW 10.4 mph - 0.00 in   Overcast
7:24 AM 64.4 °F 62.6 °F 94% 29.83 in 10.0 mi SSW 6.9 mph - N/A   Mostly Cloudy
7:53 AM 64.9 °F 62.1 °F 90% 29.81 in 10.0 mi SW 5.8 mph - 0.00 in   Mostly Cloudy
8:53 AM 66.9 °F 63.0 °F 87% 29.77 in 10.0 mi SSW 9.2 mph - N/A   Mostly Cloudy
9:40 AM 69.8 °F 64.4 °F 83% 29.79 in 10.0 mi SSW 16.1 mph 21.9 mph N/A   Mostly Cloudy
9:53 AM 68.0 °F 64.0 °F 87% 29.77 in 10.0 mi SSW 13.8 mph 21.9 mph N/A   Mostly Cloudy
10:02 AM 69.8 °F 64.4 °F 83% 29.78 in 10.0 mi SSW 11.5 mph - N/A   Overcast
10:53 AM 73.0 °F 64.9 °F 76% 29.77 in 10.0 mi SW 12.7 mph - N/A   Scattered Clouds
11:53 AM 75.0 °F 64.9 °F 71% 29.79 in 10.0 mi WSW 15.0 mph 20.7 mph N/A   Partly Cloudy
12:53 PM 78.1 °F 64.0 °F 62% 29.79 in 10.0 mi SW 12.7 mph - N/A   Partly Cloudy
1:53 PM 77.0 °F 63.0 °F 62% 29.79 in 10.0 mi SW 16.1 mph 23.0 mph N/A   Mostly Cloudy
2:53 PM 78.1 °F 63.0 °F 60% 29.78 in 10.0 mi WSW 13.8 mph 24.2 mph N/A   Scattered Clouds
3:53 PM 77.0 °F 63.0 °F 62% 29.78 in 10.0 mi SW 15.0 mph 24.2 mph N/A   Scattered Clouds
4:53 PM 75.0 °F 63.0 °F 66% 29.79 in 10.0 mi SW 10.4 mph 18.4 mph N/A   Mostly Cloudy
5:53 PM 72.0 °F 62.1 °F 71% 29.78 in 10.0 mi WSW 9.2 mph - 0.00 in   Overcast
6:53 PM 71.1 °F 62.1 °F 73% 29.77 in 10.0 mi SSW 4.6 mph - N/A   Overcast
7:53 PM 70.0 °F 62.1 °F 76% 29.75 in 10.0 mi SSW 3.5 mph - N/A   Overcast
8:53 PM 69.1 °F 61.0 °F 75% 29.75 in 10.0 mi South 3.5 mph - 0.00 in   Partly Cloudy
9:53 PM 69.1 °F 62.1 °F 78% 29.74 in 10.0 mi South 3.5 mph - N/A   Partly Cloudy
10:53 PM 68.0 °F 62.1 °F 81% 29.71 in 10.0 mi Calm Calm - N/A   Clear
11:53 PM 62.1 °F 60.1 °F 93% 29.70 in 10.0 mi Calm Calm - N/A   Partly Cloudy